DW0495 Weather Reports


time (UTC)temp
F
wind
direction
speed
knots
gust
knots
rain 1hr
in
rain 24hr
in
rain mn
in
humidity
%
barometer
mb
20260906233512 79 138 0.0 0.0 0.00 0.00 0.00 20 1012.4
20260906232143 79 130 0.0 0.0 0.00 0.00 0.00 20 1012.1
20260906232138 79 130 0.0 0.0 0.00 0.00 0.00 22 1012.0
20260906225724 80 143 0.0 0.0 0.00 0.00 0.00 19 1012.0
20260906224314 80 128 0.0 0.0 0.00 0.00 0.00 19 1012.1
20260906222226 81 161 0.0 0.0 0.00 0.00 0.00 19 1012.3
20260906221228 81 134 0.0 0.0 0.00 0.00 0.00 18 1012.4
20260906220611 82 122 0.0 0.9 0.00 0.00 0.00 18 1012.5
20260906215111 82 121 0.0 0.0 0.00 0.00 0.00 19 1012.5
20260906213801 82 151 0.0 1.7 0.00 0.00 0.00 20 1012.5
20260906212802 82 111 0.0 0.9 0.00 0.00 0.00 18 1012.6
20260906211800 83 97 0.0 0.0 0.00 0.00 0.00 20 1012.8
20260906210430 83 119 0.0 2.6 0.00 0.00 0.00 20 1013.1
20260906205431 84 165 0.0 6.1 0.00 0.00 0.00 22 1013.4
20260906204431 84 139 0.0 0.0 0.00 0.00 0.00 21 1013.5
20260906202910 84 149 0.0 6.1 0.00 0.00 0.00 22 1013.5
20260906202412 84 108 0.0 5.2 0.00 0.00 0.00 20 1013.4
20260906200912 85 128 0.0 0.0 0.00 0.00 0.00 18 1013.5
20260906195344 84 101 0.0 0.0 0.00 0.00 0.00 22 1013.6
20260906194850 84 101 0.0 0.0 0.00 0.00 0.00 24 1013.8
20260906193124 83 144 0.0 0.9 0.00 0.00 0.00 23 1014.0
20260906192122 82 144 0.0 0.0 0.00 0.00 0.00 27 1014.1
20260906191123 81 143 0.0 0.0 0.00 0.00 0.00 28 1014.3
20260906190122 80 143 0.0 0.0 0.00 0.00 0.00 27 1014.7
20260906185122 80 143 0.0 0.0 0.00 0.00 0.00 27 1014.9
20260906184124 80 143 0.0 0.0 0.00 0.00 0.00 32 1015.0
20260906182520 79 143 0.0 0.0 0.00 0.00 0.00 35 1015.1
20260906181350 79 143 0.0 0.0 0.00 0.00 0.00 34 1015.5
20260906180854 78 143 0.0 0.0 0.00 0.00 0.00 35 1015.6
20260906174926 77 143 0.0 0.0 0.00 0.00 0.00 35 1015.9
20260906173925 76 143 0.0 0.0 0.00 0.00 0.00 38 1016.1
20260906173428 75 143 0.0 0.0 0.00 0.00 0.00 37 1016.3
20260906171926 74 144 0.0 0.0 0.00 0.00 0.00 38 1016.3
20260906170926 74 143 0.0 0.0 0.00 0.00 0.00 42 1016.4
20260906165926 73 143 0.0 0.0 0.00 0.00 0.00 42 1016.4
20260906164926 72 143 0.0 0.0 0.00 0.00 0.00 40 1016.5
20260906163927 71 143 0.0 0.0 0.00 0.00 0.00 46 1016.6
20260906162210 69 143 0.0 0.0 0.00 0.00 0.00 45 1016.6
20260906161713 69 143 0.0 0.0 0.00 0.00 0.00 44 1016.7
20260906160008 67 143 0.0 0.0 0.00 0.00 0.00 46 1017.0
20260906155009 67 143 0.0 0.0 0.00 0.00 0.00 48 1017.1
20260906154007 65 143 0.0 0.0 0.00 0.00 0.00 50 1017.2
20260906152704 64 143 0.0 0.0 0.00 0.00 0.00 52 1017.2
20260906152204 63 143 0.0 0.0 0.00 0.00 0.00 52 1017.2
20260906150701 62 143 0.0 0.0 0.00 0.00 0.00 54 1017.2
20260906145324 59 143 0.0 0.0 0.00 0.00 0.00 61 1017.3
20260906144323 57 143 0.0 0.0 0.00 0.00 0.00 65 1017.3
20260906143323 55 143 0.0 0.0 0.00 0.00 0.00 70 1017.3
20260906141606 51 143 0.0 0.0 0.00 0.00 0.00 80 1017.2
20260906140605 50 143 0.0 0.0 0.00 0.00 0.00 77 1017.2
20260906135605 49 144 0.0 0.0 0.00 0.00 0.00 76 1017.1
20260906134606 49 143 0.0 0.0 0.00 0.00 0.00 75 1017.0
20260906133605 49 143 0.0 0.0 0.00 0.00 0.00 74 1017.0
20260906132350 50 143 0.0 0.0 0.00 0.00 0.00 72 1016.6
20260906130849 50 143 0.0 0.0 0.00 0.00 0.00 72 1016.6
20260906125849 51 143 0.0 0.0 0.00 0.00 0.00 71 1016.6
20260906124847 51 143 0.0 0.0 0.00 0.00 0.00 70 1016.4
20260906122959 52 143 0.0 0.0 0.00 0.00 0.00 69 1016.3
20260906121955 52 143 0.0 0.0 0.00 0.00 0.00 68 1016.2
20260906120956 53 143 0.0 0.0 0.00 0.00 0.00 67 1016.3
20260906115958 53 143 0.0 0.0 0.00 0.00 0.00 67 1016.3
20260906115227 54 143 0.0 0.0 0.00 0.00 0.00 66 1016.2
20260906113725 54 143 0.0 0.0 0.00 0.00 0.00 65 1016.2
20260906112728 54 143 0.0 0.0 0.00 0.00 0.00 65 1016.1
20260906111730 55 143 0.0 0.0 0.00 0.00 0.00 64 1015.9
20260906111726 55 143 0.0 0.0 0.00 0.00 0.00 64 1015.9
20260906105728 55 143 0.0 0.0 0.00 0.00 0.00 63 1015.9
20260906104557 55 143 0.0 0.0 0.00 0.00 0.00 63 1015.8
20260906103058 56 143 0.0 0.0 0.00 0.00 0.00 62 1015.7
20260906101931 56 143 0.0 0.0 0.00 0.00 0.00 62 1015.6
20260906100934 56 143 0.0 0.0 0.00 0.00 0.00 62 1015.6
20260906100435 56 143 0.0 0.0 0.00 0.00 0.00 62 1015.6
20260906094823 56 143 0.0 0.0 0.00 0.00 0.00 63 1015.4
20260906093824 56 143 0.0 0.0 0.00 0.00 0.00 63 1015.0
20260906092821 56 143 0.0 0.0 0.00 0.00 0.00 62 1014.9
20260906091821 55 143 0.0 0.0 0.00 0.00 0.00 61 1014.7
20260906090333 55 143 0.0 0.0 0.00 0.00 0.00 57 1014.4
20260906085331 55 143 0.0 0.0 0.00 0.00 0.00 54 1014.3
20260906084330 56 143 0.0 0.0 0.00 0.00 0.00 56 1014.2
20260906083328 56 143 0.0 0.0 0.00 0.00 0.00 54 1013.9
20260906082027 57 143 0.0 0.0 0.00 0.00 0.00 53 1013.9
20260906081025 57 143 0.0 0.0 0.00 0.00 0.00 52 1014.0
20260906080024 57 143 0.0 0.0 0.00 0.00 0.00 51 1014.1
20260906075526 57 143 0.0 0.0 0.00 0.00 0.00 50 1014.1
20260906073826 58 143 0.0 0.0 0.00 0.00 0.00 50 1013.9
20260906072825 58 143 0.0 0.0 0.00 0.00 0.00 50 1013.8
20260906071825 58 143 0.0 0.0 0.00 0.00 0.00 49 1013.8
20260906070028 57 143 0.0 0.0 0.00 0.00 0.00 45 1013.8
20260906065526 57 143 0.0 0.0 0.00 0.00 0.00 49 1013.9
20260906064027 57 143 0.0 0.0 0.00 0.00 0.00 48 1013.9
20260906062746 57 143 0.0 0.0 0.00 0.00 0.00 46 1014.0
20260906062245 57 143 0.0 0.0 0.00 0.00 0.00 48 1014.2
20260906060745 57 143 0.0 0.0 0.00 0.00 0.00 49 1014.1
20260906055743 58 143 0.0 0.0 0.00 0.00 0.00 50 1014.3
20260906054033 58 143 0.0 0.0 0.00 0.00 0.00 53 1014.7
20260906052258 59 143 0.0 0.0 0.00 0.00 0.00 53 1014.8
20260906051258 59 143 0.0 0.0 0.00 0.00 0.00 53 1014.9
20260906050258 59 143 0.0 0.0 0.00 0.00 0.00 53 1015.1
20260906044513 60 143 0.0 0.0 0.00 0.00 0.00 52 1015.3
20260906043513 60 143 0.0 0.0 0.00 0.00 0.00 52 1015.4
20260906042513 61 143 0.0 0.0 0.00 0.00 0.00 53 1015.5
20260906041211 61 143 0.0 0.0 0.00 0.00 0.00 52 1015.5
20260906040209 62 143 0.0 0.0 0.00 0.00 0.00 52 1015.5
20260906035211 62 143 0.0 0.0 0.00 0.00 0.00 51 1015.6
20260906033747 63 143 0.0 0.0 0.00 0.00 0.00 50 1015.7
20260906032644 64 143 0.0 0.0 0.00 0.00 0.00 49 1015.7
20260906031631 64 143 0.0 0.0 0.00 0.00 0.00 48 1015.7
20260906030655 65 143 0.0 0.0 0.00 0.00 0.00 47 1015.6
20260906025154 66 143 0.0 0.0 0.00 0.00 0.00 45 1015.5
20260906024654 67 143 0.0 0.0 0.00 0.00 0.00 45 1015.4
20260906023155 68 143 0.0 0.0 0.00 0.00 0.00 43 1015.1
20260906021727 69 143 0.0 0.0 0.00 0.00 0.00 40 1015.1
20260906020727 71 143 0.0 0.0 0.00 0.00 0.00 38 1015.1
20260906015728 72 143 0.0 0.0 0.00 0.00 0.00 36 1015.0
20260906013915 74 143 0.0 0.0 0.00 0.00 0.00 33 1015.1
20260906012915 75 143 0.0 0.0 0.00 0.00 0.00 31 1015.1
20260906011916 76 143 0.0 0.0 0.00 0.00 0.00 30 1015.3
20260906010303 76 143 0.0 0.0 0.00 0.00 0.00 26 1015.3
20260906005306 77 143 0.0 0.0 0.00 0.00 0.00 28 1015.1
20260906004304 77 143 0.0 0.0 0.00 0.00 0.00 28 1015.1
20260906002431 78 143 0.0 0.0 0.00 0.00 0.00 26 1015.0
20260906001935 78 143 0.0 0.0 0.00 0.00 0.00 26 1015.0
20260905235911 79 143 0.0 0.0 0.00 0.00 0.00 26 1015.1
20260905234912 78 143 0.0 0.0 0.00 0.00 0.00 28 1015.1